Bozeman, MT

11:41 PM MST on December 15, 2017 (GMT -0700)
Gallatin

Weather History for KBZN - April, 2014

Change the Weather History Date:

Friday, April 4, 2014

  Actual Average Record
Temperature  
Mean Temperature 38 °F 42 °F  
Max Temperature 54 °F 56 °F 74 °F (2000)
Min Temperature 22 °F 29 °F -3 °F (1936)
Degree Days  
Heating Degree Days 27 23  
Month to date heating degree days 116 93  
Since 1 July heating degree days 7102 6557  
Cooling Degree Days 0 0  
Month to date cooling degree days 0 0  
Year to date cooling degree days 0 0  
Moisture  
Dew Point 22 °F    
Average Humidity 51    
Maximum Humidity 76    
Minimum Humidity 26    
Precipitation  
Precipitation 0.02 in 0.05 in 0.54 in (2005)
Month to date precipitation 0.02 0.18  
Year to date precipitation 2.46 2.03  
Snow  
Snow 0.00 in 0.30 in 6.00 in (1955)
Month to date snowfall T 1.2  
Since 1 July snowfall 29.5 31.2  
Snow Depth 0.00 in    
Sea Level Pressure  
Sea Level Pressure 29.90 in    
Wind  
Wind Speed 11 mph (South)    
Max Wind Speed 26 mph    
Max Gust Speed 33 mph    
Visibility 10 miles    
Events Rain    
T = Trace of Precipitation, MM = Missing Value Source: NWS Daily Summary

Daily Weather History Graph

Daily Weather History Graph

Search for Another Location

Airport or City:

Trip Planner

Search our weather history database for the weather conditions in past years. The results will help you decide how hot, cold, wet, or windy it might be!

Date:

Astronomy

Apr. 04, 2014 Rise Set
Actual Time 6:58 AM MDT 7:57 PM MDT
Civil Twilight 6:28 AM MDT 8:27 PM MDT
Nautical Twilight 5:52 AM MDT 9:03 PM MDT
Astronomical Twilight 5:14 AM MDT 9:41 PM MDT
Moon 10:07 AM MDT (4/4) 12:29 AM MDT (4/4)
Length of Visible Light 13h 58m
Length of Day
12h 58m
Waxing Crescent, 26% of the Moon is Illuminated
Apr 4
Waxing Crescent
Apr 7
First Quarter
Apr 15
Full
Apr 22
Last Quarter
Apr 29
New

Hourly Weather History & Observations

Time (MDT) Temp. Windchill Dew Point Humidity Pressure Visibility Wind Dir Wind Speed Gust Speed Precip Events Conditions
12:56 AM 30.0 °F 20.0 °F 19.9 °F 66% 30.01 in 10.0 mi SSE 12.7 mph - N/A   Clear
1:56 AM 30.0 °F 23.2 °F 19.9 °F 66% 29.98 in 10.0 mi South 6.9 mph - N/A   Clear
2:56 AM 25.0 °F 20.7 °F 18.0 °F 75% 29.99 in 10.0 mi South 3.5 mph - N/A   Clear
3:56 AM 27.0 °F 18.0 °F 19.0 °F 72% 29.97 in 10.0 mi South 9.2 mph - N/A   Clear
4:56 AM 27.0 °F 18.7 °F 19.0 °F 72% 29.96 in 10.0 mi SSE 8.1 mph - N/A   Clear
5:56 AM 24.1 °F 18.2 °F 17.1 °F 75% 29.97 in 10.0 mi ESE 4.6 mph - N/A   Clear
6:56 AM 24.1 °F 16.0 °F 18.0 °F 77% 29.98 in 10.0 mi East 6.9 mph - N/A   Clear
7:56 AM 28.0 °F 19.3 °F 19.9 °F 72% 29.98 in 10.0 mi SE 9.2 mph - N/A   Clear
8:56 AM 39.0 °F 32.3 °F 21.9 °F 50% 29.96 in 10.0 mi SSE 10.4 mph - N/A   Clear
9:56 AM 43.0 °F 37.2 °F 19.0 °F 38% 29.94 in 10.0 mi SSE 10.4 mph - N/A   Clear
10:56 AM 46.0 °F 41.9 °F 19.9 °F 35% 29.91 in 10.0 mi SSE 8.1 mph - N/A   Clear
11:56 AM 48.9 °F - 17.1 °F 28% 29.90 in 10.0 mi SW 12.7 mph - N/A   Clear
12:56 PM 51.1 °F - 17.1 °F 26% 29.86 in 10.0 mi South 9.2 mph - N/A   Clear
1:56 PM 51.8 °F - 17.6 °F 26% 29.80 in 10.0 mi WSW 13.8 mph 25.3 mph N/A   Scattered Clouds
2:56 PM 53.1 °F - 19.0 °F 26% 29.82 in 10.0 mi SW 18.4 mph 23.0 mph N/A   Clear
3:56 PM 53.1 °F - 21.0 °F 29% 29.80 in 10.0 mi WSW 20.7 mph 27.6 mph N/A   Clear
4:56 PM 50.0 °F - 24.1 °F 36% 29.80 in 10.0 mi WSW 23.0 mph 31.1 mph N/A   Mostly Cloudy
5:56 PM 48.0 °F - 25.0 °F 41% 29.83 in 10.0 mi SW 17.3 mph 26.5 mph N/A   Partly Cloudy
6:56 PM 48.0 °F - 24.1 °F 39% 29.83 in 10.0 mi SSW 12.7 mph - N/A   Partly Cloudy
7:56 PM 45.0 °F 40.1 °F 26.1 °F 48% 29.83 in 10.0 mi South 9.2 mph - N/A   Mostly Cloudy
8:56 PM 44.1 °F 37.1 °F 27.0 °F 51% 29.82 in 10.0 mi West 15.0 mph 21.9 mph N/A   Overcast
9:56 PM 41.0 °F 32.5 °F 30.9 °F 67% 29.84 in 10.0 mi NNW 17.3 mph - N/A   Overcast
10:56 PM 37.9 °F 32.7 °F 30.9 °F 76% 29.85 in 10.0 mi NE 6.9 mph - N/A   Overcast
11:56 PM 37.9 °F 29.6 °F 33.1 °F 83% 29.87 in 10.0 mi WNW 13.8 mph - 0.00 in Rain Light Rain